{"data":{"norad_id":59555,"epoch":"2026-05-24T18:10:43.536576Z","epoch_age_seconds":95983,"freshness":"FRESH","line1":"1 59555U 24074X   26144.75744834 -.00000936  00000+0 -24494-4 0  9991","line2":"2 59555  43.0000 274.2968 0001068 262.8184  97.2546 15.27572563117647","mean_motion":15.27572563,"eccentricity":0.0001068,"inclination_deg":43,"raan_deg":274.2968,"arg_perigee_deg":262.8184,"mean_anomaly_deg":97.2546,"bstar":-2.4494e-5,"rev_number":11764,"period_min":94.267207652119,"perigee_km":482.33858813005,"apogee_km":483.80414223685,"semimajor_km":6861.2083651834,"source":"CELESTRAK","updated_at":"2026-05-25T13:38:18.983678Z"}}